Sulphur, LA

5:09 AM CDT on April 25, 2017 (GMT -0500)
Sulphur

Weather History for KUXL - July, 2013

Change the Weather History Date:

Monday, July 8, 2013

  Actual Average (KLCH) Record (KLCH)
Temperature  
Mean Temperature 84 °F -  
Max Temperature 92 °F 91 °F 102 °F (1913)
Min Temperature 76 °F 74 °F 60 °F (1924)
Cooling Degree Days 18    
Growing Degree Days 34 (Base 50)    
Moisture  
Dew Point 76 °F    
Average Humidity 77    
Maximum Humidity 97    
Minimum Humidity 55    
Precipitation  
Precipitation 0.00 in - - ()
Sea Level Pressure  
Sea Level Pressure 30.10 in    
Wind  
Wind Speed 7 mph (SE)    
Max Wind Speed 15 mph    
Max Gust Speed 20 mph    
Visibility 10 miles    
Events      
Averages and records for this station are not official NWS values.
T = Trace of Precipitation, MM = Missing Value Source: NWS Daily Summary

Daily Weather History Graph

Daily Weather History Graph

Search for Another Location

Airport or City:

Trip Planner

Search our weather history database for the weather conditions in past years. The results will help you decide how hot, cold, wet, or windy it might be!

Date:

Astronomy

Jul. 08, 2013 Rise Set
Actual Time 6:18 AM CDT 8:18 PM CDT
Civil Twilight 5:51 AM CDT 8:45 PM CDT
Nautical Twilight 5:18 AM CDT 9:18 PM CDT
Astronomical Twilight 4:43 AM CDT 9:53 PM CDT
Moon 6:42 AM CDT (7/8) 8:29 PM CDT (7/8)
Length of Visible Light 14h 53m
Length of Day
13h 59m
New Moon, 0% of the Moon is Illuminated
Jul 8
New Moon
Jul 15
First Quarter
Jul 22
Full
Jul 29
Last Quarter
Aug 6
New

Hourly Weather History & Observations

Time (CDT) Temp. Heat Index Dew Point Humidity Pressure Visibility Wind Dir Wind Speed Gust Speed Precip Events Conditions
12:15 AM 78.3 °F - 75.2 °F 90% 30.05 in 10.0 mi East 5.8 mph - N/A   Clear
12:35 AM 78.1 °F - 74.7 °F 89% 30.05 in 10.0 mi East 6.9 mph - N/A   Clear
12:55 AM 77.2 °F - 74.8 °F 92% 30.05 in 10.0 mi East 6.9 mph - N/A   Clear
1:15 AM 77.2 °F - 74.7 °F 92% 30.05 in 10.0 mi ESE 8.1 mph - N/A   Clear
1:35 AM 77.4 °F - 74.3 °F 90% 30.04 in 10.0 mi SE 9.2 mph - N/A   Clear
1:55 AM 77.4 °F - 74.5 °F 91% 30.04 in 10.0 mi ESE 6.9 mph - N/A   Clear
2:15 AM 78.1 °F - 75.2 °F 91% 30.04 in 10.0 mi SE 10.4 mph - N/A   Clear
2:35 AM 78.1 °F - 75.4 °F 91% 30.04 in 10.0 mi ESE 6.9 mph - N/A   Clear
2:55 AM 77.9 °F - 75.6 °F 92% 30.04 in 10.0 mi East 5.8 mph - N/A   Clear
3:15 AM 77.9 °F - 75.4 °F 92% 30.05 in 10.0 mi SE 5.8 mph - N/A   Clear
3:35 AM 77.7 °F - 75.4 °F 92% 30.05 in 10.0 mi SE 4.6 mph - N/A   Clear
3:55 AM 77.2 °F - 75.4 °F 94% 30.06 in 10.0 mi East 4.6 mph - N/A   Clear
4:15 AM 76.6 °F - 75.4 °F 96% 30.07 in 10.0 mi ENE 3.5 mph - N/A   Clear
4:35 AM 76.3 °F - 75.2 °F 96% 30.07 in 10.0 mi Calm Calm - N/A   Clear
4:55 AM 76.3 °F - 75.4 °F 97% 30.08 in 10.0 mi East 3.5 mph - N/A   Scattered Clouds
5:15 AM 77.0 °F - 75.7 °F 96% 30.09 in 10.0 mi East 4.6 mph - N/A   Scattered Clouds
5:55 AM 77.4 °F - 75.9 °F 95% 30.09 in 10.0 mi ENE 4.6 mph - N/A   Clear
6:15 AM 77.0 °F - 75.6 °F 95% 30.10 in 10.0 mi East 3.5 mph - N/A   Clear
6:35 AM 77.2 °F - 75.7 °F 95% 30.11 in 10.0 mi East 3.5 mph - N/A   Clear
6:55 AM 77.5 °F - 76.1 °F 95% 30.11 in 10.0 mi ENE 4.6 mph - N/A   Clear
7:15 AM 78.3 °F - 76.5 °F 94% 30.12 in 10.0 mi East 5.8 mph - N/A   Clear
7:35 AM 79.0 °F - 76.8 °F 93% 30.12 in 10.0 mi ENE 4.6 mph - N/A   Clear
7:55 AM 79.5 °F - 77.0 °F 92% 30.13 in 10.0 mi ENE 4.6 mph - N/A   Clear
8:15 AM 80.6 °F 87.1 °F 77.0 °F 89% 30.13 in 10.0 mi East 6.9 mph - N/A   Clear
8:35 AM 80.6 °F 87.1 °F 77.0 °F 89% 30.13 in 10.0 mi East 5.8 mph - N/A   Clear
8:55 AM 82.6 °F 91.7 °F 77.7 °F 85% 30.14 in 10.0 mi East 6.9 mph - N/A   Clear
9:15 AM 83.5 °F 92.9 °F 77.2 °F 81% 30.14 in 10.0 mi East 6.9 mph - N/A   Clear
9:35 AM 85.3 °F 96.3 °F 77.4 °F 77% 30.14 in 10.0 mi ESE 4.6 mph - N/A   Clear
9:55 AM 86.2 °F 97.4 °F 77.0 °F 74% 30.14 in 10.0 mi SE 8.1 mph - N/A   Scattered Clouds
10:15 AM 86.2 °F 96.0 °F 75.9 °F 71% 30.14 in 10.0 mi SE 6.9 mph - N/A   Scattered Clouds
10:35 AM 87.1 °F 96.3 °F 75.0 °F 67% 30.14 in 10.0 mi SSE 6.9 mph - N/A   Scattered Clouds
10:55 AM 87.4 °F 96.7 °F 75.0 °F 66% 30.14 in 10.0 mi South 9.2 mph - N/A   Mostly Cloudy
11:15 AM 89.4 °F 100.0 °F 75.6 °F 63% 30.14 in 10.0 mi SE 10.4 mph 17.3 mph N/A   Scattered Clouds
11:35 AM 89.6 °F 99.8 °F 75.0 °F 62% 30.14 in 10.0 mi SE 11.5 mph - N/A   Scattered Clouds
11:55 AM 90.0 °F 101.3 °F 75.7 °F 63% 30.15 in 10.0 mi SE 11.5 mph - N/A   Scattered Clouds
12:15 PM 89.4 °F 99.4 °F 75.0 °F 62% 30.15 in 10.0 mi SSE 13.8 mph 17.3 mph N/A   Mostly Cloudy
12:35 PM 90.1 °F 100.6 °F 75.2 °F 61% 30.14 in 10.0 mi SSE 12.7 mph 17.3 mph N/A   Mostly Cloudy
12:55 PM 90.1 °F 101.2 °F 75.4 °F 62% 30.14 in 10.0 mi SSE 10.4 mph 18.4 mph N/A   Mostly Cloudy
1:15 PM 90.7 °F 103.2 °F 76.6 °F 63% 30.14 in 10.0 mi SSE 12.7 mph - N/A   Mostly Cloudy
1:35 PM 91.2 °F 102.0 °F 75.2 °F 59% 30.13 in 10.0 mi South 11.5 mph 17.3 mph N/A   Mostly Cloudy
1:55 PM 90.5 °F 100.9 °F 74.8 °F 60% 30.13 in 10.0 mi South 11.5 mph 16.1 mph N/A   Mostly Cloudy
2:15 PM 91.4 °F 101.9 °F 74.7 °F 58% 30.12 in 10.0 mi South 15.0 mph 18.4 mph N/A   Mostly Cloudy
2:35 PM 89.8 °F 99.2 °F 74.1 °F 60% 30.12 in 10.0 mi South 10.4 mph 18.4 mph N/A   Mostly Cloudy
2:55 PM 91.4 °F 102.5 °F 75.2 °F 59% 30.12 in 10.0 mi South 9.2 mph - N/A   Scattered Clouds
3:15 PM 91.4 °F 101.9 °F 74.8 °F 58% 30.11 in 10.0 mi South 10.4 mph 19.6 mph N/A   Scattered Clouds
3:35 PM 91.0 °F 101.6 °F 75.0 °F 59% 30.11 in 10.0 mi South 12.7 mph 18.4 mph N/A   Mostly Cloudy
3:55 PM 91.4 °F 100.7 °F 73.8 °F 56% 30.10 in 10.0 mi SSE 11.5 mph 17.3 mph N/A   Mostly Cloudy
4:15 PM 91.0 °F 99.8 °F 73.2 °F 56% 30.09 in 10.0 mi South 10.4 mph - N/A   Mostly Cloudy
4:35 PM 91.2 °F 100.2 °F 73.6 °F 56% 30.09 in 10.0 mi South 8.1 mph - N/A   Scattered Clouds
4:55 PM 91.4 °F 100.7 °F 73.8 °F 56% 30.09 in 10.0 mi South 9.2 mph - N/A   Clear
5:15 PM 90.7 °F 98.5 °F 72.7 °F 55% 30.09 in 10.0 mi South 6.9 mph - N/A   Scattered Clouds
5:35 PM 90.7 °F 100.7 °F 74.5 °F 59% 30.09 in 10.0 mi South 8.1 mph - N/A   Scattered Clouds
5:55 PM 89.8 °F 99.2 °F 74.3 °F 60% 30.09 in 10.0 mi South 8.1 mph - N/A   Mostly Cloudy
6:15 PM 88.7 °F 98.2 °F 74.8 °F 63% 30.09 in 10.0 mi South 10.4 mph - N/A   Scattered Clouds
6:35 PM 88.5 °F 97.8 °F 74.5 °F 63% 30.09 in 10.0 mi South 10.4 mph - N/A   Scattered Clouds
6:55 PM 88.0 °F 97.5 °F 75.0 °F 65% 30.09 in 10.0 mi SSE 10.4 mph - N/A   Scattered Clouds
7:15 PM 87.1 °F 96.8 °F 75.2 °F 68% 30.09 in 10.0 mi SSE 9.2 mph - N/A   Scattered Clouds
7:35 PM 86.4 °F 95.5 °F 75.2 °F 69% 30.10 in 10.0 mi SSE 9.2 mph - N/A   Scattered Clouds
7:55 PM 86.0 °F 95.1 °F 75.2 °F 70% 30.10 in 10.0 mi SSE 6.9 mph - N/A   Clear
8:15 PM 85.1 °F 93.7 °F 75.2 °F 72% 30.11 in 10.0 mi SSE 6.9 mph - N/A   Clear
8:35 PM 83.8 °F 91.8 °F 75.2 °F 75% 30.11 in 10.0 mi SSE 5.8 mph - N/A   Clear
8:55 PM 83.1 °F 90.4 °F 74.7 °F 76% 30.11 in 10.0 mi South 3.5 mph - N/A   Clear
9:15 PM 82.0 °F 88.9 °F 75.2 °F 80% 30.11 in 10.0 mi South 4.6 mph - N/A   Clear
9:35 PM 81.7 °F 88.7 °F 76.1 °F 83% 30.11 in 7.0 mi SSE 3.5 mph - N/A   Clear
9:55 PM 81.0 °F 87.3 °F 76.1 °F 85% 30.11 in 10.0 mi South 3.5 mph - N/A   Clear
10:15 PM 80.6 °F 86.6 °F 76.1 °F 86% 30.11 in 10.0 mi South 4.6 mph - N/A   Scattered Clouds
10:35 PM 80.6 °F 87.1 °F 77.2 °F 89% 30.13 in 10.0 mi Calm Calm - N/A   Scattered Clouds
10:55 PM 80.8 °F 87.8 °F 77.7 °F 90% 30.13 in 10.0 mi Calm Calm - N/A   Scattered Clouds
11:15 PM 81.9 °F 90.8 °F 78.3 °F 89% 30.14 in 10.0 mi Calm Calm - N/A   Mostly Cloudy
11:35 PM 81.3 °F 89.2 °F 77.9 °F 89% 30.14 in 10.0 mi South 3.5 mph - N/A   Mostly Cloudy
11:55 PM 81.1 °F 88.9 °F 77.9 °F 90% 30.14 in 10.0 mi SSE 4.6 mph - N/A   Scattered Clouds